Temperature
6 6 6 6 6 6 6 6 7 7 7 7 7 7 7 7 7 7 8 8 8 8 8 8 8 8 8 8 8 8 8 8 9 9 8 9 9 9 9 9 9 9 9
6 5 5 6 6 6 6 6 6 6 6 6 6 6 6 7 7 7 7 7 7 7 7 8 8 8 8 8 8 8 8 8 8 8 7 7 8 8 9 8 9 9 9
5 5 5 5 5 5 6 6 6 6 6 6 6 6 6 6 6 6 7 7 7 7 7 7 7 7 7 7 8 7 8 7 7 7 7 7 8 7 8 8 8 8 8
5 5 5 5 5 5 5 5 5 5 6 6 6 6 6 6 6 6 6 6 6 6 6 7 7 7 7 7 7 7 7 7 7 7 7 7 7 7 6 7 7 7 8
5 4 4 5 5 5 5 5 5 5 5 5 5 5 5 5 5 5 5 6 6 6 6 6 6 6 7 7 7 7 7 6 6 6 6 7 7 7 6 6 7 7 7
4 4 4 4 4 5 5 5 5 5 5 5 5 5 5 5 5 5 5 5 5 5 6 6 6 6 6 6 6 6 6 6 6 6 6 6 6 6 6 6 6 6 6
4 4 4 4 4 4 4 4 4 4 4 5 4 4 4 5 5 5 5 5 5 5 5 5 6 6 6 6 6 6 6 6 6 6 6 6 6 6 6 6 5 5 6
4 4 4 4 4 4 4 4 4 4 4 4 4 4 4 4 4 4 4 4 5 5 5 5 5 5 5 5 5 5 5 6 5 5 5 5 5 5 5 5 5 5 5
4 3 3 3 3 3 3 3 3 4 4 4 4 4 4 4 4 4 4 4 4 4 4 5 5 5 5 5 5 5 5 5 5 5 5 5 5 5 5 5 5 4 4
3 3 3 3 3 3 3 3 3 3 3 3 3 4 4 4 4 4 4 4 4 4 4 4 4 4 5 5 5 4 4 5 4 4 4 4 4 4 4 4 4 4 4
3 3 3 3 3 3 3 3 3 3 3 3 3 3 4 4 4 4 4 4 4 4 4 4 4 4 4 4 4 4 4 4 4 4 4 4 4 4 4 4 4 4 4
3 3 2 2 2 2 2 3 3 3 3 3 3 3 3 3 3 4 4 4 4 4 3 3 4 4 4 4 4 4 4 4 3 3 3 3 3 3 3 3 4 4 3
3 2 2 2 2 2 2 2 2 2 2 3 3 3 3 3 3 3 3 3 3 3 3 3 3 3 3 3 3 3 3 3 3 3 3 3 3 3 3 3 3 3 3
2 2 2 2 2 2 2 2 2 2 2 2 2 2 2 3 3 3 3 3 3 3 3 3 3 3 3 3 3 3 3 3 3 2 2 2 2 2 2 2 2 2 2
2 2 2 1 2 2 2 2 2 2 2 2 2 2 2 2 2 2 2 2 2 2 2 3 3 3 3 3 2 2 2 2 2 2 2 2 2 2 2 2 2 2 2
1 1 1 1 1 1 1 1 2 2 2 2 2 2 2 2 2 2 2 2 2 2 2 2 2 2 2 2 2 2 2 2 1 1 1 1 1 1 1 1 1 1 2
1 1 1 1 1 1 1 1 1 1 1 1 1 1 1 1 1 2 2 2 1 1 1 2 2 2 2 2 2 1 1 1 1 1 1 0 0 0 1 1 1 1 1
1 1 1 1 1 1 1 1 1 1 1 1 1 1 1 1 1 1 1 1 1 1 1 1 1 1 1 1 1 1 1 1 0 0 0 0 -0 -0 -0 0 0 0 1
1 1 1 1 1 1 1 1 1 1 1 1 1 1 1 1 1 1 1 1 1 1 1 0 1 1 1 1 0 0 0 -0 -0 -0 -0 -0 -1 -1 -0 -0 -0 -0 -0
0 0 0 0 0 1 0 0 0 0 0 0 1 1 1 1 1 0 0 0 0 0 0 0 0 0 0 0 -0 -0 -0 -0 -1 -1 -1 -1 -1 -1 -1 -1 -1 -1 -1
0 0 0 0 0 0 0 0 0 0 0 0 0 0 0 0 0 0 0 0 -0 -0 -0 -0 -0 -0 -1 -1 -1 -1 -1 -1 -1 -1 -1 -2 -1 -1 -1 -1 -1 -1 -1
-0 -0 -0 -0 -0 -0 -1 -1 -1 -0 -0 -0 -0 -0 -0 -0 -0 -0 -0 -0 -1 -1 -1 -1 -1 -1 -1 -1 -1 -1 -1 -1 -1 -2 -2 -2 -2 -2 -1 -1 -1 -1 -1
-1 -1 -1 -1 -1 -1 -1 -1 -1 -1 -1 -1 -1 -1 -1 -1 -1 -1 -1 -1 -1 -2 -2 -2 -2 -2 -2 -2 -2 -2 -2 -2 -2 -2 -2 -2 -2 -2 -2 -2 -2 -2 -2
-1 -1 -1 -1 -1 -1 -1 -1 -1 -1 -1 -1 -2 -2 -1 -1 -1 -1 -2 -2 -2 -2 -3 -3 -3 -3 -3 -3 -2 -2 -2 -2 -2 -2 -2 -2 -2 -2 -2 -2 -2 -2 -2
-2 -2 -2 -2 -1 -2 -2 -1 -2 -2 -2 -2 -2 -2 -2 -2 -2 -2 -2 -2 -2 -3 -3 -3 -3 -3 -3 -3 -3 -3 -3 -3 -3 -3 -3 -3 -3 -3 -3 -3 -3 -3 -3
-2 -2 -2 -2 -2 -2 -2 -2 -2 -2 -2 -2 -2 -2 -3 -2 -3 -3 -3 -3 -3 -3 -3 -3 -3 -3 -3 -3 -3 -3 -3 -3 -3 -3 -4 -4 -4 -4 -4 -4 -4 -4 -4
Wind_Speed
4 4 4 3 3 3 3 3 1 1 1 1 2 2 2 2 1 1 1 1 2 3 2 1 1 2 2 2 2 3 3 2 1 2 3 3 4 3 3 3 3 2 2
4 4 4 3 3 3 3 3 2 2 2 2 2 2 2 2 2 1 2 1 2 2 2 2 2 2 2 2 2 3 3 2 2 2 2 2 3 2 3 3 3 2 1
4 4 4 4 4 4 3 3 3 3 3 2 2 2 2 2 2 2 2 2 2 2 2 3 3 3 3 3 3 3 3 2 2 2 2 2 2 1 2 3 3 2 2
4 4 4 4 4 4 3 3 4 3 3 3 3 4 3 3 3 3 2 2 2 3 2 3 3 3 3 3 3 3 3 3 3 3 2 2 1 1 1 2 2 2 2
5 5 4 4 4 4 3 3 4 4 3 3 4 4 4 3 3 3 3 3 2 2 3 3 3 3 2 3 3 3 3 3 3 3 2 2 2 2 2 3 2 2 2
5 5 5 4 4 4 4 4 4 4 4 4 4 5 5 4 4 4 4 3 2 2 3 3 3 3 2 3 3 4 4 3 3 3 3 2 2 2 2 3 3 3 2
5 5 5 5 5 5 5 4 5 5 4 4 4 5 5 6 6 5 4 4 3 3 3 3 3 3 3 3 3 4 4 4 4 3 3 2 2 2 2 2 3 3 3
5 5 6 5 5 5 5 5 5 5 4 4 5 5 5 5 4 5 4 4 3 3 3 4 4 4 4 4 4 4 4 3 3 3 3 2 2 2 2 2 2 3 3
6 6 6 6 5 5 5 5 5 5 5 5 5 5 5 5 5 5 4 3 3 3 4 4 4 4 4 4 4 3 4 4 4 3 3 2 2 2 2 2 2 3 3
6 6 6 6 5 5 5 5 5 5 5 5 4 4 4 5 4 3 4 3 4 3 4 4 4 4 3 4 4 4 4 4 3 3 3 2 1 1 2 2 2 3 3
6 6 6 6 5 5 5 5 4 4 5 5 4 4 4 4 4 3 3 3 3 3 3 4 4 3 3 3 3 4 3 3 3 2 2 2 2 1 2 2 2 3 3
5 6 6 5 5 5 5 5 4 4 4 4 3 3 4 4 3 2 2 2 3 3 3 4 3 3 3 3 3 3 3 3 3 2 2 2 2 2 2 2 2 3 3
6 5 5 5 6 6 5 5 5 5 4 3 3 3 3 3 2 2 2 2 2 2 3 3 3 3 3 3 3 3 3 2 2 2 2 2 2 2 2 2 2 2 2
5 5 5 5 6 6 6 5 5 5 4 3 3 3 3 2 2 2 2 2 2 2 2 2 3 3 2 2 3 2 2 2 1 1 1 2 2 2 2 2 2 2 2
6 6 6 6 6 6 6 5 5 5 4 4 3 4 3 2 2 2 1 1 1 1 2 2 2 2 2 2 3 2 2 2 2 1 1 1 1 2 2 2 2 2 2
7 7 7 6 6 6 6 5 5 5 4 4 4 3 2 2 1 1 0 0 0 1 1 1 1 1 1 2 3 2 2 2 2 1 0 0 0 1 1 2 3 2 2
7 7 7 6 6 6 5 5 4 3 3 3 3 3 2 2 1 0 0 0 0 0 1 1 0 0 1 2 2 2 2 2 2 1 1 0 0 1 1 1 2 2 3
7 7 7 6 6 5 5 4 3 2 3 3 3 2 2 2 1 0 0 0 0 0 1 1 1 0 0 1 1 1 2 2 1 1 0 0 1 1 1 2 2 3 3
6 6 6 5 5 5 4 3 2 2 2 2 2 2 2 2 1 0 1 0 0 0 0 1 1 1 1 1 1 1 1 2 1 0 0 0 0 1 2 2 2 2 2
5 5 5 4 4 4 4 2 2 2 2 3 3 2 1 1 1 1 1 0 0 0 1 1 1 1 1 2 2 2 1 1 1 1 1 0 1 1 2 1 1 2 3
4 4 3 3 3 3 3 2 1 2 2 2 2 2 1 1 1 1 0 0 0 1 1 1 1 1 1 2 2 2 1 1 1 1 0 0 1 2 2 2 1 2 3
4 4 3 3 3 3 2 2 2 2 2 2 2 2 2 1 1 0 0 0 0 1 1 1 1 1 1 2 2 3 2 2 1 1 0 0 1 2 2 2 2 3 2
4 3 3 3 3 3 1 2 3 2 2 1 2 2 2 2 1 0 1 1 1 0 0 1 1 1 1 2 3 3 3 2 1 1 1 1 2 2 2 3 3 2 1
3 3 3 3 3 3 2 2 2 2 1 1 1 1 1 2 2 1 1 1 0 0 0 0 0 1 1 1 2 1 2 2 2 1 2 3 3 3 3 3 3 2 2
3 3 3 3 4 3 3 2 2 1 1 1 1 1 1 1 1 1 1 1 0 0 0 0 0 1 0 1 2 2 1 1 1 1 1 1 2 2 2 2 3 3 3
3 3 4 3 3 3 3 2 2 1 1 0 1 1 1 0 1 1 2 3 2 3 2 2 1 1 1 2 2 2 2 2 3 2 1 1 1 1 2 2 2 3 3
Wind_Direction
306 321 322 313 307 303 299 294 295 303 308 315 288 275 272 268 266 286 283 294 311 291 263 262 257 259 247 247 250 247 252 259 254 258 270 245 222 220 231 253 256 242 249
314 323 322 323 311 301 297 295 286 281 281 271 276 263 270 264 264 274 294 299 303 296 261 249 246 244 246 241 244 245 247 257 252 259 256 241 214 210 240 238 238 245 238
300 308 312 311 310 307 298 289 282 268 263 265 282 263 259 260 257 256 265 288 287 280 270 253 246 238 237 239 243 246 246 250 252 253 252 242 228 262 221 234 226 241 258
293 299 305 308 303 301 294 283 277 267 262 254 249 252 247 249 260 258 260 270 285 284 271 257 247 240 238 240 240 249 254 249 248 254 256 263 254 226 246 236 229 255 273
295 303 306 306 305 305 295 287 283 273 266 256 251 258 251 253 257 256 255 262 264 276 271 256 246 242 242 243 240 245 249 246 248 251 252 239 230 229 243 260 261 265 267
305 308 310 308 309 313 308 293 283 277 268 261 259 256 250 247 246 246 245 254 253 257 264 259 245 239 243 243 240 242 242 247 245 242 240 231 211 211 232 254 266 273 281
309 305 309 311 309 310 310 298 288 283 277 269 264 256 255 244 240 240 242 248 248 250 255 253 245 239 240 239 236 237 240 246 244 242 243 246 245 239 247 252 266 279 290
312 311 310 311 303 300 299 295 290 285 281 274 268 260 263 251 243 239 242 245 250 252 254 247 244 239 236 232 229 234 235 240 240 248 250 253 259 251 234 248 250 271 278
313 315 318 320 316 310 305 298 292 290 286 275 268 263 267 257 252 243 241 243 250 247 248 245 239 234 233 234 230 232 232 234 229 232 232 236 248 252 247 247 249 259 267
317 318 319 322 319 314 309 306 296 292 290 281 269 262 267 261 252 244 243 242 243 240 246 245 234 228 228 231 230 234 233 233 221 221 222 232 242 250 243 241 256 264 260
313 316 318 323 323 319 315 310 306 303 298 288 269 268 273 270 252 240 245 246 245 239 241 238 226 227 229 230 226 231 233 226 214 214 219 232 243 238 249 254 254 259 263
313 316 318 323 324 320 316 313 312 308 302 298 293 283 273 268 267 258 252 253 249 245 239 229 218 219 225 228 225 225 225 213 205 219 227 231 236 246 251 260 261 268 272
318 321 321 323 323 320 319 316 314 310 304 307 309 296 286 281 274 273 261 242 238 241 236 221 217 219 220 219 220 219 219 209 205 220 230 233 237 249 259 266 267 277 279
313 315 314 316 318 318 317 315 316 315 312 306 302 298 286 285 286 278 260 240 235 235 228 226 217 217 218 212 215 219 203 185 187 216 235 241 242 249 266 277 274 285 295
309 308 308 310 313 316 316 315 317 320 320 317 309 302 298 296 290 281 267 257 251 248 236 226 222 215 209 210 215 204 187 178 170 175 209 261 301 312 295 296 302 299 296
306 306 305 307 307 308 307 311 316 318 319 311 304 309 307 293 287 287 263 243 283 279 250 227 210 211 208 203 203 198 184 178 170 176 189 287 312 11 5 337 330 321 299
303 303 302 299 300 301 301 300 307 313 311 305 307 314 304 291 286 275 184 192 319 325 310 312 320 246 200 185 181 181 185 174 169 170 183 219 333 320 319 343 339 332 321
300 303 305 304 304 303 299 299 305 308 302 304 314 317 304 294 299 312 261 276 280 266 297 324 350 27 139 164 163 149 166 152 141 145 199 246 341 341 339 334 340 335 332
297 299 301 299 301 304 303 299 299 305 307 316 318 313 303 297 291 255 258 267 250 251 311 308 357 14 78 78 101 88 131 129 117 79 33 16 347 7 334 329 331 333 343
309 310 312 311 310 312 309 292 290 300 310 314 319 323 310 293 283 269 252 237 173 108 36 23 359 3 51 59 63 69 113 113 94 79 70 82 5 355 346 332 316 320 326
313 315 312 311 314 314 306 296 291 301 312 321 334 344 334 302 280 276 249 135 89 61 40 35 27 57 66 69 67 58 80 99 98 103 63 54 24 358 348 338 332 322 323
315 318 318 318 322 316 305 304 304 320 334 344 355 357 355 350 297 251 98 77 87 73 53 63 70 62 63 64 64 51 56 69 89 89 43 24 3 4 5 6 1 345 334
306 311 314 317 322 320 310 299 312 328 341 356 359 8 13 13 19 86 118 110 87 67 30 65 81 51 41 54 56 53 48 58 62 78 65 47 50 32 30 35 20 3 358
295 303 306 310 314 318 314 308 314 316 324 344 353 12 26 25 28 33 55 80 67 92 51 31 100 77 48 35 33 39 63 73 69 79 87 75 61 48 41 29 23 14 6
292 294 292 296 303 310 313 322 323 319 325 337 352 8 25 35 35 32 22 7 3 327 295 293 242 187 137 13 11 29 51 55 85 93 84 66 54 38 29 24 20 13 6
280 286 291 297 306 311 313 321 320 299 283 304 329 344 359 36 73 68 48 44 41 35 31 29 11 21 43 22 38 52 68 93 115 117 100 73 48 27 13 8 6 3 358
Height
1504 1502 1501 1500 1499 1498 1498 1497 1496 1496 1495 1495 1495 1494 1494 1494 1494 1494 1494 1494 1494 1494 1494 1494 1494 1494 1494 1494 1494 1494 1495 1494 1494 1494 1493 1493 1493 1493 1494 1494 1494 1495 1495
1501 1499 1498 1496 1496 1495 1494 1493 1493 1493 1493 1493 1493 1492 1492 1492 1491 1491 1491 1491 1491 1491 1491 1491 1491 1491 1491 1491 1491 1492 1492 1492 1492 1491 1491 1491 1492 1490 1490 1490 1491 1491 1491
1498 1497 1495 1494 1494 1493 1492 1491 1491 1491 1491 1491 1490 1490 1490 1489 1489 1488 1487 1488 1488 1488 1488 1488 1488 1488 1488 1488 1488 1489 1489 1489 1489 1489 1489 1489 1488 1488 1488 1488 1488 1488 1488
1496 1495 1493 1492 1491 1490 1489 1489 1488 1488 1488 1488 1487 1487 1486 1486 1485 1485 1484 1484 1485 1485 1485 1485 1485 1485 1485 1485 1485 1486 1486 1487 1486 1486 1486 1486 1485 1486 1486 1486 1486 1486 1485
1494 1492 1491 1490 1489 1488 1487 1486 1486 1485 1484 1484 1484 1483 1484 1483 1482 1482 1482 1481 1481 1481 1482 1482 1482 1481 1482 1482 1482 1483 1483 1484 1484 1484 1483 1483 1483 1483 1484 1483 1483 1483 1484
1492 1491 1490 1489 1487 1486 1485 1484 1483 1482 1482 1481 1480 1481 1480 1480 1479 1479 1478 1478 1477 1478 1478 1478 1478 1478 1478 1479 1479 1480 1480 1481 1481 1481 1481 1480 1480 1481 1481 1481 1480 1480 1480
1490 1489 1487 1486 1485 1483 1482 1481 1479 1479 1478 1477 1477 1477 1477 1477 1476 1476 1475 1475 1474 1474 1475 1475 1475 1475 1475 1476 1476 1476 1477 1477 1477 1478 1478 1478 1478 1478 1479 1479 1478 1478 1477
1488 1487 1485 1484 1482 1481 1479 1478 1477 1475 1475 1474 1474 1474 1474 1473 1473 1473 1472 1471 1471 1471 1471 1472 1471 1472 1472 1473 1473 1473 1473 1474 1475 1475 1475 1475 1475 1476 1476 1477 1477 1476 1475
1486 1485 1483 1481 1480 1478 1477 1476 1474 1472 1471 1471 1471 1471 1470 1469 1470 1469 1469 1468 1467 1468 1468 1468 1468 1469 1469 1470 1470 1470 1470 1471 1472 1472 1472 1472 1473 1473 1473 1474 1475 1475 1473
1484 1483 1481 1479 1478 1476 1475 1473 1471 1470 1469 1468 1467 1467 1467 1466 1466 1465 1465 1464 1464 1464 1465 1465 1465 1465 1465 1466 1466 1467 1467 1468 1469 1469 1469 1470 1470 1470 1471 1471 1472 1471 1471
1483 1482 1480 1478 1476 1474 1472 1470 1468 1467 1465 1464 1464 1463 1463 1463 1462 1462 1461 1461 1461 1461 1461 1461 1461 1461 1462 1462 1463 1463 1464 1465 1465 1466 1466 1467 1467 1468 1468 1468 1468 1468 1468
1482 1480 1478 1476 1473 1471 1469 1467 1465 1464 1462 1461 1460 1460 1460 1459 1459 1458 1458 1458 1458 1458 1458 1458 1458 1458 1459 1459 1459 1460 1461 1461 1462 1463 1464 1464 1465 1465 1465 1465 1465 1465 1465
1480 1478 1476 1474 1471 1469 1467 1465 1463 1461 1460 1458 1457 1457 1457 1456 1456 1455 1455 1455 1455 1455 1455 1455 1455 1455 1456 1456 1456 1457 1458 1458 1459 1460 1461 1461 1462 1462 1462 1462 1462 1462 1462
1478 1476 1474 1471 1469 1467 1465 1463 1461 1459 1458 1456 1455 1455 1454 1453 1453 1453 1453 1452 1452 1452 1452 1453 1453 1453 1453 1453 1454 1454 1455 1456 1457 1458 1458 1459 1459 1459 1459 1459 1459 1459 1459
1475 1473 1471 1469 1467 1465 1463 1461 1459 1457 1455 1454 1453 1452 1451 1450 1450 1450 1450 1449 1449 1450 1450 1450 1450 1450 1450 1450 1450 1452 1453 1453 1454 1455 1456 1456 1456 1456 1457 1457 1456 1457 1456
1473 1471 1469 1467 1464 1462 1461 1458 1456 1455 1454 1452 1451 1450 1449 1448 1448 1448 1448 1447 1447 1447 1448 1447 1447 1447 1447 1448 1449 1449 1450 1451 1452 1453 1453 1453 1454 1454 1455 1455 1454 1454 1454
1471 1468 1466 1464 1462 1460 1458 1456 1455 1454 1452 1451 1450 1448 1447 1447 1446 1446 1445 1445 1445 1445 1445 1445 1445 1445 1445 1446 1447 1447 1448 1448 1449 1450 1451 1451 1452 1452 1452 1452 1451 1451 1451
1468 1465 1463 1461 1459 1458 1456 1455 1453 1452 1451 1449 1448 1447 1446 1445 1444 1443 1443 1443 1443 1443 1443 1443 1443 1443 1444 1445 1445 1446 1446 1446 1447 1448 1448 1449 1449 1450 1450 1449 1449 1449 1448
1466 1463 1461 1459 1457 1455 1454 1452 1451 1450 1448 1447 1446 1445 1444 1443 1442 1442 1442 1442 1441 1441 1441 1441 1441 1442 1442 1443 1444 1444 1444 1444 1445 1446 1447 1447 1447 1447 1447 1447 1447 1446 1446
1463 1461 1458 1456 1454 1453 1451 1450 1449 1447 1446 1446 1445 1444 1443 1442 1441 1441 1441 1440 1440 1440 1439 1439 1440 1440 1441 1442 1442 1443 1443 1443 1444 1444 1445 1445 1446 1446 1445 1445 1445 1444 1443
1461 1458 1456 1454 1452 1451 1449 1448 1447 1446 1445 1444 1443 1442 1442 1441 1440 1440 1439 1438 1438 1438 1437 1438 1438 1439 1440 1441 1441 1442 1442 1442 1442 1443 1443 1443 1444 1444 1443 1443 1443 1442 1442
1458 1456 1454 1452 1450 1449 1448 1447 1445 1444 1443 1443 1442 1441 1440 1439 1439 1438 1438 1437 1437 1436 1436 1436 1437 1438 1439 1440 1440 1441 1441 1441 1441 1441 1441 1441 1442 1442 1441 1441 1441 1441 1440
1456 1454 1452 1450 1449 1448 1447 1445 1444 1443 1442 1441 1440 1439 1439 1438 1438 1437 1437 1436 1436 1436 1436 1436 1436 1437 1438 1439 1439 1440 1440 1440 1440 1440 1440 1440 1440 1440 1440 1439 1439 1439 1438
1453 1452 1450 1448 1447 1446 1445 1444 1443 1442 1441 1440 1439 1438 1438 1437 1437 1436 1436 1436 1435 1435 1435 1435 1436 1436 1437 1438 1438 1438 1439 1439 1439 1439 1439 1439 1439 1439 1439 1438 1437 1437 1437
1451 1450 1448 1447 1445 1444 1443 1442 1442 1441 1440 1439 1438 1437 1437 1436 1436 1435 1435 1435 1435 1435 1435 1435 1435 1435 1436 1437 1437 1437 1437 1437 1438 1438 1438 1438 1438 1438 1437 1436 1436 1436 1435
1449 1448 1446 1445 1443 1442 1441 1441 1440 1439 1438 1437 1437 1436 1436 1435 1435 1435 1434 1434 1434 1434 1434 1434 1434 1435 1435 1436 1436 1436 1436 1437 1437 1437 1437 1437 1437 1436 1436 1435 1435 1434 1434